CAPE
7 124 636 1256 1187 956 1011 935 800 712 691 656 543 466 316 253 232 228 148 220 445 614 538 493 324 220 162 40 4 2 0 0 0 0 0 235 690 471 355 200 374 443 432
0 276 735 1184 1117 1108 873 745 817 674 690 710 639 561 488 571 520 303 334 318 644 561 402 233 42 5 3 2 0 0 0 0 0 0 0 4 338 143 12 0 0 0 6
0 467 886 1092 1066 940 924 776 798 575 584 770 889 492 346 464 258 221 327 491 574 419 149 20 1 0 0 2 0 0 0 0 0 0 0 0 62 410 131 0 0 0 0
0 437 865 1024 1113 1134 989 905 792 574 521 799 965 691 525 267 126 42 56 299 244 118 6 0 0 0 0 0 0 0 0 0 0 0 0 0 0 3 230 76 0 0 0
0 189 620 886 1059 1055 1149 1048 803 543 559 883 970 613 386 132 21 1 0 2 25 3 0 0 0 0 0 0 0 0 0 0 0 0 0 0 0 38 172 218 52 0 0
0 113 410 599 816 972 1053 1081 905 647 739 861 692 253 79 28 2 1 1 3 2 0 1 0 0 0 0 0 0 0 0 0 0 0 0 0 0 9 132 12 124 0 0
7 163 386 559 707 754 823 946 846 632 924 759 249 128 35 17 2 3 0 2 0 0 0 0 0 0 0 0 0 0 0 0 0 0 0 0 6 5 1 3 2 1 2
40 199 309 443 529 622 709 876 781 784 844 312 93 11 11 4 1 0 0 0 0 0 0 0 0 0 0 0 0 0 0 0 0 0 0 0 0 3 3 1 0 0 0
50 134 235 334 347 333 399 544 643 670 443 155 3 0 3 1 0 0 0 0 0 0 0 0 0 0 0 0 0 0 0 0 0 0 0 0 0 0 0 0 0 0 0
20 77 136 213 230 180 79 64 272 398 324 141 1 1 1 0 0 0 0 0 0 0 0 0 0 0 0 0 0 0 0 0 0 0 0 0 0 0 0 0 0 0 0
0 2 52 70 115 94 48 7 19 41 110 37 0 0 0 0 0 0 0 0 0 0 0 0 0 0 0 0 0 0 0 0 0 0 0 0 0 0 0 0 0 0 0
0 0 0 0 0 0 1 8 13 75 62 40 5 0 0 0 0 0 0 0 0 0 0 0 0 0 0 0 0 0 0 0 0 0 0 0 0 0 0 0 0 0 0
0 0 0 0 0 0 0 0 2 12 5 10 9 0 0 0 0 0 0 0 0 0 0 0 0 0 0 0 0 0 0 0 0 0 0 0 0 0 0 0 0 0 0
0 0 0 0 0 0 0 0 0 2 6 2 0 0 0 0 0 0 0 0 0 0 0 0 0 0 0 0 0 0 0 0 0 0 0 0 0 0 0 0 0 0 2
0 0 0 0 0 0 0 0 0 0 0 0 0 0 0 0 0 0 0 0 0 0 0 0 0 0 0 0 0 0 0 0 0 0 0 0 0 0 0 0 0 1 3
0 0 0 0 0 0 0 0 0 0 0 0 0 0 0 0 0 0 0 0 0 0 0 0 0 0 0 0 0 0 0 0 0 0 0 0 0 0 0 0 0 0 0
0 0 0 0 0 0 0 0 0 0 0 0 0 0 0 0 0 0 0 0 0 0 0 0 0 0 0 0 0 0 0 0 0 0 0 0 0 0 0 0 0 2 0
0 0 0 0 0 0 0 0 0 0 0 0 0 0 0 0 0 0 0 0 0 0 0 0 0 0 0 0 0 0 0 0 0 0 0 0 0 0 0 0 0 0 0
0 0 0 0 0 0 0 0 0 0 0 0 0 0 0 0 0 0 0 0 0 0 0 0 0 0 0 0 0 0 0 0 0 0 0 0 0 0 0 0 0 0 0
0 0 0 0 0 0 0 0 0 0 0 0 0 0 0 0 0 0 0 0 0 0 0 0 0 0 0 0 0 0 0 0 0 0 0 0 0 0 0 0 0 0 0
0 0 0 0 0 0 0 0 0 0 0 0 0 0 0 0 0 0 0 0 0 0 0 0 0 0 0 0 0 0 0 0 0 0 0 0 0 0 0 0 0 0 0
0 0 0 0 0 0 0 0 0 0 0 0 0 0 0 0 0 0 0 0 0 0 0 0 0 0 0 0 0 0 0 0 0 0 0 0 0 0 0 0 0 0 0
0 0 0 0 0 0 0 0 0 0 0 0 0 0 0 0 0 0 0 0 0 0 0 0 0 0 0 0 0 0 0 0 0 0 0 0 0 0 0 0 0 0 0
0 0 0 0 0 0 0 0 0 0 0 0 0 0 0 0 0 0 0 0 0 0 0 0 0 0 0 0 0 0 0 0 0 0 0 0 0 0 0 0 0 0 0
0 0 0 0 0 0 0 0 0 0 0 0 0 0 0 0 0 0 0 0 0 0 0 0 0 0 0 0 0 0 0 0 0 0 0 0 0 0 0 0 0 0 0
0 0 0 0 0 0 0 0 0 0 0 0 0 0 0 0 0 0 0 0 0 0 0 0 0 0 0 0 0 0 0 0 0 0 0 0 0 0 0 0 0 0 0
CIN
-99 -375 -199 -47 -38 -54 -29 -24 -26 -18 -5 -4 -16 -13 -43 -50 -43 -56 -79 -57 -5 0 0 0 -3 -22 -16 -32 0 0 0 0 0 0 0 -40 -1 -2 -9 -38 -9 -3 -1
0 -358 -213 -67 -56 -45 -58 -60 -36 -39 -19 -7 -7 -13 -4 -2 -16 -45 -25 -18 -1 0 -1 -3 -21 -6 -5 -5 -1 0 0 0 0 0 0 -6 -3 -26 -34 0 0 0 -6
0 -316 -171 -100 -72 -73 -63 -60 -46 -60 -38 -3 0 -17 -28 -4 -30 -28 -12 -1 -1 0 -19 -87 -3 0 0 0 0 0 0 0 0 0 0 0 -7 -1 -17 -2 0 0 0
0 -325 -173 -122 -79 -46 -54 -53 -51 -74 -52 -2 0 0 -1 -27 -95 -175 -120 -15 -14 -25 -85 0 0 0 0 0 0 0 0 0 0 0 0 0 0 -15 -5 -19 0 0 0
0 -423 -215 -139 -83 -69 -35 -35 -67 -110 -73 -2 0 -18 -41 -145 -260 -2 -3 -67 -160 -6 0 0 0 0 0 0 0 0 0 0 0 0 0 0 0 -14 -29 -29 -29 0 0
0 -458 -293 -218 -119 -66 -42 -35 -45 -92 -48 -16 -42 -149 -234 -280 -3 0 0 -2 -5 0 0 0 0 0 0 0 0 0 0 0 0 0 0 0 0 -2 -58 -2 -67 0 0
-364 -456 -290 -208 -141 -109 -79 -35 -43 -81 -16 -36 -200 -255 -333 -319 -3 0 0 -1 0 0 0 0 0 0 0 0 0 0 0 0 0 0 0 0 0 0 0 -1 0 0 0
-588 -436 -332 -254 -196 -142 -97 -37 -42 -44 -31 -166 -300 -425 -349 -2 -1 0 0 0 0 0 0 0 0 0 0 0 0 0 0 0 0 0 0 0 0 0 0 0 0 0 0
-598 -484 -381 -310 -284 -262 -192 -116 -68 -51 -111 -229 -119 0 0 0 0 0 0 0 0 0 0 0 0 0 0 0 0 0 0 0 0 0 0 0 0 0 0 0 0 0 0
-680 -582 -475 -373 -330 -316 -370 -357 -196 -129 -138 -214 -108 -1 0 0 0 0 0 0 0 0 0 0 0 0 0 0 0 0 0 0 0 0 0 0 0 0 0 0 0 0 0
0 -363 -603 -530 -436 -404 -418 -316 -422 -339 -242 -261 0 0 0 0 0 0 0 0 0 0 0 0 0 0 0 0 0 0 0 0 0 0 0 0 0 0 0 0 0 0 0
0 0 0 0 0 0 0 -198 -462 -330 -317 -310 0 -1 0 0 0 0 0 0 0 0 0 0 0 0 0 0 0 0 0 0 0 0 0 0 0 0 0 0 0 0 0
0 0 0 0 0 0 0 0 -1 -58 -9 0 0 -1 0 0 0 0 0 0 0 0 0 0 0 0 0 0 0 0 0 0 0 0 0 0 0 0 0 0 0 0 0
0 0 0 0 0 0 0 0 0 -1 0 0 0 0 0 0 0 0 0 0 0 0 0 0 0 0 0 0 0 0 0 0 0 0 0 0 0 0 0 0 0 0 0
0 0 0 0 0 0 0 0 0 0 0 0 0 0 0 0 0 0 0 0 0 0 0 0 0 0 0 0 0 0 0 0 0 0 0 0 0 0 0 0 0 -1 -1
0 0 0 0 0 0 0 0 0 0 0 0 0 0 0 0 0 0 0 0 0 0 0 0 0 0 0 0 0 0 0 0 0 0 0 0 0 0 0 0 0 0 0
0 0 0 0 0 0 0 0 0 0 0 0 0 0 0 0 0 0 0 0 0 0 0 0 0 0 0 0 0 0 0 0 0 0 0 0 0 0 0 0 0 -1 0
0 0 0 0 0 0 0 0 0 0 0 0 0 0 0 0 0 0 0 0 0 0 0 0 0 0 0 0 0 0 0 0 0 0 0 0 0 0 0 0 0 0 0
0 0 0 0 0 0 0 0 0 0 0 0 0 0 0 0 0 0 0 0 0 0 0 0 0 0 0 0 0 0 0 0 0 0 0 0 0 0 0 0 0 0 0
0 0 0 0 0 0 0 0 0 0 0 0 0 0 0 0 0 0 0 0 0 0 0 0 0 0 0 0 0 0 0 0 0 0 0 0 0 0 0 0 0 0 0
0 0 0 0 0 0 0 0 0 0 0 0 0 0 0 0 0 0 0 0 0 0 0 0 0 0 0 0 0 0 0 0 0 0 0 0 0 0 0 0 0 0 0
0 0 0 0 0 0 0 0 0 0 0 0 0 0 0 0 0 0 0 0 0 0 0 0 0 0 0 0 0 0 0 0 0 0 0 0 0 0 0 0 0 0 0
0 0 0 0 0 0 0 0 0 0 0 0 0 0 0 0 0 0 0 0 0 0 0 0 0 0 0 0 0 0 0 0 0 0 0 0 0 0 0 0 0 0 0
0 0 0 0 0 0 0 0 0 0 0 0 0 0 0 0 0 0 0 0 0 0 0 0 0 0 0 0 0 0 0 0 0 0 0 0 0 0 0 0 0 0 0
0 0 0 0 0 0 0 0 0 0 0 0 0 0 0 0 0 0 0 0 0 0 0 0 0 0 0 0 0 0 0 0 0 0 0 0 0 0 0 0 0 0 0
0 0 0 0 0 0 0 0 0 0 0 0 0 0 0 0 0 0 0 0 0 0 0 0 0 0 0 0 0 0 0 0 0 0 0 0 0 0 0 0 0 0 0
Wind_Speed
20 21 23 23 22 23 23 20 5 6 7 8 8 9 11 11 13 12 14 14 14 10 11 11 12 12 13 13 14 14 15 15 15 16 15 15 15 15 16 16 16 17 17
17 20 22 22 22 21 22 20 16 15 7 8 8 8 11 13 12 14 14 14 11 11 10 11 12 13 13 14 14 15 15 16 16 16 16 15 16 15 16 16 16 16 17
15 18 20 19 20 20 18 20 18 12 9 7 6 8 13 12 12 13 13 12 10 10 11 13 13 14 13 13 14 14 15 15 16 16 16 15 15 16 15 15 16 16 16
13 15 17 17 17 17 18 16 13 15 16 11 8 6 7 10 13 16 16 13 12 12 13 14 13 13 14 14 15 15 16 16 16 16 16 15 15 16 15 15 15 15 16
12 12 11 12 13 13 13 13 13 12 10 12 11 8 7 10 13 15 17 18 17 15 14 14 14 14 15 15 16 17 18 18 18 18 17 17 17 17 16 16 14 15 16
12 11 7 9 8 8 8 9 9 8 12 9 5 6 8 12 12 14 16 15 14 13 14 15 15 14 15 16 16 17 17 17 18 18 17 17 17 17 16 16 16 15 15
12 12 11 8 7 4 3 5 5 4 3 2 3 8 9 9 11 13 13 12 12 12 12 11 12 13 14 15 15 15 16 16 16 17 17 16 16 16 17 17 16 15 15
10 11 12 11 9 6 2 3 2 4 3 4 8 11 10 11 12 12 11 10 11 12 12 12 12 13 13 13 14 15 16 16 16 17 17 17 18 17 18 18 18 18 17
7 8 9 10 11 10 10 4 2 2 5 6 6 11 11 10 10 10 10 10 10 9 10 10 11 12 13 14 15 16 17 17 17 18 18 18 20 19 19 20 19 19 18
3 5 8 9 9 10 10 12 9 6 3 3 4 7 8 9 10 11 11 11 10 9 9 9 10 11 13 14 15 16 17 18 19 19 19 20 21 20 20 20 20 20 19
4 1 3 5 6 8 9 9 11 10 7 6 4 4 4 6 8 10 10 9 9 9 9 9 10 12 13 15 16 17 18 19 20 20 20 22 21 21 20 20 19 19 18
6 4 5 5 5 5 5 5 9 8 8 7 5 4 4 4 5 6 8 9 8 9 10 10 11 13 15 16 17 18 19 20 20 20 21 22 22 21 19 18 18 17 17
11 10 8 8 8 8 8 7 7 7 7 7 7 6 5 4 5 6 6 6 7 8 10 12 13 15 15 16 17 18 18 19 20 20 21 22 22 20 19 18 17 17 17
12 10 10 11 11 12 12 11 11 10 9 9 8 8 7 7 6 6 6 6 6 7 10 12 13 14 14 16 17 18 19 20 20 20 20 22 21 19 18 17 17 17 17
15 14 12 10 12 13 14 14 14 14 14 13 12 11 10 10 10 9 8 7 8 9 10 11 12 13 14 15 17 18 19 20 20 20 20 20 20 19 17 17 17 16 16
24 20 14 12 12 13 14 15 16 16 16 15 15 14 14 13 13 12 11 10 9 9 10 11 12 12 14 15 17 19 20 21 20 19 19 19 19 19 18 17 17 16 15
24 21 17 16 15 16 16 16 16 16 17 17 17 16 16 16 15 14 14 13 12 11 10 11 12 13 14 16 18 19 20 20 19 19 17 17 16 18 18 18 17 16 16
23 21 20 19 18 18 18 17 17 16 17 17 16 17 17 17 17 16 17 16 15 14 13 13 13 14 15 16 17 18 19 18 18 18 17 16 16 17 17 18 16 16 17
25 20 19 18 19 20 20 19 18 18 18 18 18 18 18 19 19 19 19 18 16 16 15 14 14 14 15 16 18 18 19 19 19 18 17 17 17 17 17 17 17 18 18
31 27 24 19 18 19 21 22 21 21 20 20 20 21 20 20 20 20 20 19 19 19 18 17 16 16 16 16 18 19 19 19 18 17 17 17 17 17 17 17 17 17 18
30 28 25 21 20 16 17 19 22 24 25 24 23 22 21 21 22 22 22 21 21 21 21 19 18 18 19 16 18 20 20 19 18 16 16 16 16 16 17 17 17 16 15
33 32 28 23 19 17 19 21 21 24 25 25 25 25 24 23 24 24 24 24 23 23 23 22 21 22 23 18 21 20 23 22 19 17 15 16 16 17 17 17 16 15 14
34 34 32 30 23 16 15 19 21 27 27 27 29 30 29 28 27 27 25 24 24 23 24 23 23 23 23 21 22 22 23 24 18 17 16 17 18 18 18 17 16 15 13
34 34 34 30 26 23 18 18 18 23 26 29 29 29 31 31 31 29 27 26 25 25 25 25 24 25 23 23 24 25 24 21 22 22 20 20 20 20 19 17 16 15 13
34 37 34 31 28 25 21 21 23 24 23 24 26 27 27 27 30 31 30 29 28 27 26 26 26 26 26 26 25 25 25 24 23 23 24 21 21 20 20 19 17 15 14
35 33 33 32 31 30 27 24 23 24 26 26 27 27 27 27 27 30 32 32 31 30 28 28 28 29 28 28 27 26 25 25 24 23 24 22 21 20 19 18 17 16 14
Wind_Direction
150 137 141 143 141 145 147 134 53 302 302 308 318 313 304 298 281 296 280 284 279 311 313 318 327 326 318 322 325 326 325 319 325 330 331 337 354 359 360 358 349 5 5
126 137 142 144 144 143 146 138 121 114 305 302 311 315 295 278 300 285 290 288 303 315 322 316 319 317 315 319 323 323 323 324 326 324 325 338 343 354 358 357 357 358 358
119 132 141 142 145 145 139 143 134 111 91 63 29 328 291 298 298 290 288 289 314 317 323 315 312 314 322 326 329 326 322 321 327 328 325 334 342 342 359 357 0 355 358
109 128 138 142 142 144 145 141 130 136 139 116 85 39 358 317 293 281 275 295 298 301 311 311 311 314 314 320 317 312 312 310 310 311 317 321 320 321 331 345 347 350 350
115 125 130 140 142 144 143 142 139 135 127 127 113 81 32 319 304 286 272 266 278 288 297 298 302 311 310 308 308 302 301 299 300 296 301 302 308 311 318 323 342 345 342
120 125 118 139 145 146 145 146 143 137 141 127 87 355 336 313 311 301 292 293 299 298 301 300 299 307 306 305 311 311 308 309 304 303 305 304 304 304 321 321 326 338 347
121 133 130 130 136 146 166 162 158 151 147 134 332 319 320 324 322 313 307 309 311 314 319 328 328 323 322 318 319 318 316 318 316 313 310 309 314 315 313 318 318 326 332
115 131 139 145 145 143 144 163 243 271 266 274 295 300 308 311 311 314 318 317 317 314 318 324 329 327 332 334 333 330 323 321 321 318 316 313 307 313 312 310 311 307 313
107 130 140 148 157 158 160 155 173 251 271 278 283 297 300 306 311 312 313 316 322 328 329 330 330 331 328 328 328 327 325 322 318 316 314 312 303 309 310 304 308 311 314
63 138 154 156 159 165 168 173 171 176 208 246 260 290 296 300 301 303 305 308 314 322 330 333 335 333 331 331 330 328 329 324 319 315 314 309 305 311 314 311 309 310 315
330 233 184 180 178 175 175 178 182 183 187 196 227 237 278 298 299 299 300 304 309 314 320 327 327 329 330 328 327 326 323 321 318 317 317 311 311 312 312 315 314 314 317
312 261 255 243 226 221 227 208 192 194 197 199 206 215 225 277 293 297 300 300 305 307 309 314 318 321 322 324 324 324 323 321 319 317 316 312 312 312 316 320 320 321 323
307 301 262 259 256 246 254 253 251 250 237 230 218 220 227 256 280 286 298 295 299 301 305 306 309 312 317 321 324 325 326 324 321 320 318 314 314 315 317 319 319 319 320
305 295 286 264 262 259 264 256 257 255 249 249 238 228 240 253 257 263 275 274 288 293 301 304 306 312 317 321 323 324 325 324 322 321 320 315 313 315 317 319 318 318 318
303 299 286 270 255 257 255 261 258 257 254 254 253 245 246 250 253 255 258 264 275 285 294 301 306 310 314 318 321 322 323 322 322 321 321 320 317 316 316 317 318 318 319
303 299 286 259 247 241 243 247 255 254 253 252 253 251 246 254 254 253 255 257 264 275 287 294 300 306 310 315 317 319 321 323 324 324 323 323 320 317 316 317 317 317 317
296 291 276 262 251 234 231 235 242 248 250 252 253 249 246 250 251 253 256 258 263 269 278 288 294 301 305 311 314 317 320 323 325 325 325 324 328 325 322 319 317 318 319
299 289 281 271 257 245 241 240 244 245 245 248 249 252 246 246 250 252 257 259 261 265 270 277 284 291 298 304 309 314 319 322 324 325 325 325 324 323 323 320 320 319 319
308 298 287 273 261 254 252 252 249 245 247 247 248 249 245 246 247 252 256 258 256 261 265 269 276 284 290 298 304 310 316 319 319 322 324 324 323 321 321 320 320 318 317
316 313 304 294 279 271 268 263 261 259 253 251 251 253 250 249 248 252 256 255 254 258 261 264 269 278 284 291 298 304 311 315 317 320 322 323 322 322 320 316 316 319 319
328 326 318 311 297 280 271 265 259 258 264 261 259 255 251 251 246 248 256 256 254 256 257 258 264 268 278 282 292 299 304 311 313 318 321 322 322 322 321 319 317 317 321
329 326 325 320 313 298 288 281 277 273 269 268 267 265 257 252 250 249 252 251 250 256 255 254 257 265 275 268 283 290 294 301 307 311 315 318 318 318 318 318 317 316 316
334 332 324 316 317 316 305 297 289 286 279 275 273 273 270 264 258 253 251 251 248 249 250 249 250 255 264 265 273 285 292 294 303 304 304 307 310 312 314 315 314 313 312
338 338 338 331 323 318 314 307 297 292 286 283 279 276 273 268 264 259 254 253 250 250 250 250 253 256 260 260 268 274 284 294 296 300 300 298 300 303 307 310 309 308 306
340 339 338 340 336 331 322 311 304 298 297 295 291 285 279 274 265 262 258 256 253 251 252 251 251 251 256 261 262 269 276 283 289 295 297 298 297 297 301 303 304 303 302
346 347 346 343 338 333 327 320 313 307 301 296 294 290 286 281 274 264 261 258 257 255 250 249 249 250 252 258 259 264 267 275 279 288 293 297 295 295 296 298 297 297 298